COSMOS 2251 DEB, 35065

Orbit data source: Space-Track

COSMOS 2251 DEB, 35065 is space debris in LEO originally from a launch on Wed, 16 Jun 1993 UTC launched from the Plesetsk Missile And Space Complex (PKMTR). The debris from Iridium 33, an American commercial communications satellite, has been tracked extensively since its accidental collision with the defunct Russian satellite Cosmos 2251 in 2009. This event, occurring at high speed in low Earth orbit (LEO), generated thousands of pieces of space debris, significantly increasing the risk of further collisions. The Iridium 33 debris cloud has impacted space traffic management and orbital debris mitigation strategies, making it a subject of ongoing study in space situational awareness.

Loading next visibility...
Identifier
35065, 1993-036AHU
Orbit
LEO
Country
Flag of CISCIS
Related business
Manufacturer
Unknown
Mission
Spacecraft
Bus & Motor
Unknown
Mass
Unknown
Launch date (UTC)
1993-06-16 (33 years ago)
Launch vehicle
Unknown
Launch site
Plesetsk Missile And Space Complex (PKMTR)
Object type
Payload
Rocket body
Debris
Shape & HBR
Unknown shape, 0.1 m
Radar Cross Section
Small (<0.1 m²)

Expand to show TLE details & history
Last TLE update: 3 days ago

TLE from 3 days ago
0 COSMOS 2251 DEB
1 35065U 93036AHU 26205.48170429  .00001156  00000-0  32873-3 0  9999
2 35065  74.0208 136.4179 0020371 212.6791 147.3108 14.46355148715855
Epoch: 2026-07-24T11:33Z
TLE epoch observation values (Epoch: 2026-07-24T11:33:39.250Z)
Latitude
-0.00008°
Longitude
20.79662°
Altitude
752.411 km
Speed
7.472 km/s
True Right ascension
09h 05m 40s
True Declination
0° 00' 00"
Sunlit
Object was in daylight at epoch
Visualization orbit readout
Latitude
Unknown
Longitude
Unknown
Altitude
Unknown
Speed
Unknown
Apparent Right ascension
Unknown
Apparent Declination
Unknown
Sunlit
N/A
Visualization observer readout
Local Sidereal Time
08:34:32
Azimuth
Unknown
Elevation
Unknown
Doppler factor
Unknown
Orbital elements
Apogee altitude
749.682 km
Perigee altitude
720.701 km
Semi-major axis
7,113.329 km
Eccentricity
0.00204
Inclination
74.0208°
RAAN
136.4179°
Arg. of periapsis
212.6791°
True anomaly
147.4366°
Mean anomaly
147.3108°
Eccentric anomaly
147.37373°
Mean motion
3.61771 °/min
Orbital period
99.51 mins
BSTAR
0.00032873
Loading maneuver chart data...
Computing Atmospheric mass density...

Documentation

Showing up to 5 results
|